| time (UTC) | temp F | wind direction | speed knots | gust knots | rain 1hr in | rain 24hr in | rain mn in | humidity % | barometer mb |
| 20260506034012 | 58 | 227 | 4.3 | 7.8 | 0.00 | 0.00 | 0.00 | 50 | 1012.3 |
| 20260506033512 | 58 | 212 | 1.7 | 6.1 | 0.00 | 0.00 | 0.00 | 52 | 1012.2 |
| 20260506033035 | 59 | 230 | 1.7 | 6.1 | 0.00 | 0.00 | 0.00 | 49 | 1012.2 |
| 20260506032509 | 59 | 231 | 1.7 | 6.1 | 0.00 | 0.00 | 0.00 | 51 | 1012.1 |
| 20260506032010 | 59 | 189 | 1.7 | 7.0 | 0.00 | 0.00 | 0.00 | 52 | 1012.2 |
| 20260506031542 | 59 | 194 | 2.6 | 7.0 | 0.00 | 0.00 | 0.00 | 52 | 1012.2 |
| 20260506031013 | 60 | 161 | 0.9 | 4.3 | 0.00 | 0.00 | 0.00 | 51 | 1012.2 |
| 20260506030512 | 60 | 268 | 1.7 | 4.3 | 0.00 | 0.00 | 0.00 | 46 | 1012.1 |
| 20260506030032 | 61 | 254 | 2.6 | 6.1 | 0.00 | 0.00 | 0.00 | 41 | 1012.0 |
| 20260506025516 | 61 | 261 | 2.6 | 7.8 | 0.00 | 0.00 | 0.00 | 42 | 1012.1 |
| 20260506025013 | 62 | 271 | 3.5 | 5.2 | 0.00 | 0.00 | 0.00 | 41 | 1012.0 |
| 20260506024543 | 62 | 264 | 2.6 | 7.0 | 0.00 | 0.00 | 0.00 | 41 | 1012.2 |
| 20260506024014 | 62 | 257 | 2.6 | 4.3 | 0.00 | 0.00 | 0.00 | 40 | 1012.0 |
| 20260506023511 | 62 | 259 | 2.6 | 5.2 | 0.00 | 0.00 | 0.00 | 39 | 1012.1 |
| 20260506023032 | 62 | 257 | 1.7 | 7.0 | 0.00 | 0.00 | 0.00 | 40 | 1012.0 |
| 20260506022518 | 62 | 261 | 2.6 | 7.8 | 0.00 | 0.00 | 0.00 | 39 | 1012.1 |
| 20260506022012 | 63 | 276 | 2.6 | 7.8 | 0.00 | 0.00 | 0.00 | 38 | 1012.1 |
| 20260506021532 | 63 | 258 | 4.3 | 7.0 | 0.00 | 0.00 | 0.00 | 38 | 1012.1 |
| 20260506021017 | 63 | 273 | 4.3 | 7.8 | 0.00 | 0.00 | 0.00 | 38 | 1012.1 |
| 20260506020512 | 64 | 257 | 4.3 | 7.8 | 0.00 | 0.00 | 0.00 | 37 | 1012.0 |
| 20260506020031 | 64 | 277 | 3.5 | 7.8 | 0.00 | 0.00 | 0.00 | 38 | 1011.9 |
| 20260506015514 | 64 | 256 | 3.5 | 7.0 | 0.00 | 0.00 | 0.00 | 38 | 1011.8 |
| 20260506015014 | 65 | 266 | 4.3 | 7.0 | 0.00 | 0.00 | 0.00 | 37 | 1011.8 |
| 20260506014532 | 65 | 230 | 4.3 | 7.8 | 0.00 | 0.00 | 0.00 | 37 | 1011.8 |
| 20260506014017 | 65 | 276 | 4.3 | 7.8 | 0.00 | 0.00 | 0.00 | 37 | 1011.8 |
| 20260506013510 | 66 | 257 | 3.5 | 7.8 | 0.00 | 0.00 | 0.00 | 37 | 1011.9 |
| 20260506013031 | 66 | 273 | 3.5 | 7.8 | 0.00 | 0.00 | 0.00 | 38 | 1012.0 |
| 20260506012511 | 66 | 286 | 4.3 | 7.0 | 0.00 | 0.00 | 0.00 | 41 | 1012.0 |
| 20260506012012 | 67 | 311 | 2.6 | 6.1 | 0.00 | 0.00 | 0.00 | 40 | 1011.9 |
| 20260506011535 | 67 | 254 | 2.6 | 7.0 | 0.00 | 0.00 | 0.00 | 39 | 1011.9 |
| 20260506011015 | 67 | 254 | 2.6 | 4.3 | 0.00 | 0.00 | 0.00 | 40 | 1011.8 |
| 20260506010512 | 67 | 273 | 2.6 | 4.3 | 0.00 | 0.00 | 0.00 | 37 | 1012.0 |
| 20260506010035 | 67 | 278 | 1.7 | 3.5 | 0.00 | 0.00 | 0.00 | 39 | 1011.9 |
| 20260506005511 | 67 | 287 | 2.6 | 3.5 | 0.00 | 0.00 | 0.00 | 40 | 1011.9 |
| 20260506005012 | 67 | 315 | 1.7 | 4.3 | 0.00 | 0.00 | 0.00 | 38 | 1011.9 |
| 20260506004530 | 67 | 262 | 1.7 | 6.1 | 0.00 | 0.00 | 0.00 | 38 | 1011.9 |
| 20260506004012 | 67 | 290 | 2.6 | 6.1 | 0.00 | 0.00 | 0.00 | 38 | 1012.1 |
| 20260506003514 | 67 | 252 | 2.6 | 6.1 | 0.00 | 0.00 | 0.00 | 41 | 1012.1 |
| 20260506003032 | 66 | 57 | 0.0 | 3.5 | 0.00 | 0.00 | 0.00 | 40 | 1011.9 |
| 20260506002514 | 65 | 61 | 1.7 | 4.3 | 0.00 | 0.00 | 0.00 | 41 | 1011.9 |
| 20260506002012 | 66 | 63 | 1.7 | 6.1 | 0.00 | 0.00 | 0.00 | 40 | 1012.0 |
| 20260506001536 | 66 | 58 | 2.6 | 6.1 | 0.00 | 0.00 | 0.00 | 41 | 1012.0 |
| 20260506001014 | 65 | 301 | 0.0 | 2.6 | 0.00 | 0.00 | 0.00 | 40 | 1012.1 |
| 20260506000511 | 65 | 289 | 0.9 | 1.7 | 0.00 | 0.00 | 0.00 | 40 | 1012.1 |
| 20260506000040 | 66 | 323 | 0.9 | 2.6 | 0.00 | 0.00 | 0.00 | 39 | 1012.2 |
| 20260505235511 | 66 | 323 | 0.9 | 4.3 | 0.00 | 0.00 | 0.00 | 39 | 1012.1 |
| 20260505235011 | 67 | 355 | 1.7 | 4.3 | 0.00 | 0.00 | 0.00 | 40 | 1012.1 |
| 20260505234535 | 67 | 296 | 1.7 | 5.2 | 0.00 | 0.00 | 0.00 | 39 | 1012.0 |
| 20260505234015 | 68 | 42 | 1.7 | 7.0 | 0.00 | 0.00 | 0.00 | 39 | 1012.1 |
| 20260505233514 | 67 | 119 | 2.6 | 7.0 | 0.00 | 0.00 | 0.00 | 39 | 1012.0 |
| 20260505233030 | 67 | 56 | 2.6 | 8.7 | 0.00 | 0.00 | 0.00 | 39 | 1012.0 |
| 20260505232517 | 67 | 46 | 3.5 | 8.7 | 0.00 | 0.00 | 0.00 | 38 | 1012.2 |
| 20260505232015 | 66 | 100 | 2.6 | 8.7 | 0.00 | 0.00 | 0.00 | 40 | 1012.2 |
| 20260505231534 | 65 | 112 | 5.2 | 7.8 | 0.00 | 0.00 | 0.00 | 41 | 1012.1 |
| 20260505231012 | 65 | 88 | 3.5 | 7.0 | 0.00 | 0.00 | 0.00 | 40 | 1012.2 |
| 20260505230513 | 64 | 86 | 1.7 | 3.5 | 0.00 | 0.00 | 0.00 | 40 | 1012.2 |
| 20260505230036 | 64 | 24 | 0.9 | 3.5 | 0.00 | 0.00 | 0.00 | 40 | 1012.3 |
| 20260505225512 | 64 | 31 | 1.7 | 3.5 | 0.00 | 0.00 | 0.00 | 39 | 1012.4 |
| 20260505225015 | 65 | 355 | 0.9 | 4.3 | 0.00 | 0.00 | 0.00 | 39 | 1012.4 |
| 20260505224535 | 65 | 340 | 0.9 | 5.2 | 0.00 | 0.00 | 0.00 | 38 | 1012.6 |
| 20260505224013 | 66 | 355 | 2.6 | 5.2 | 0.00 | 0.00 | 0.00 | 37 | 1012.3 |
| 20260505223515 | 67 | 62 | 2.6 | 5.2 | 0.00 | 0.00 | 0.00 | 37 | 1012.4 |
| 20260505223035 | 67 | 341 | 2.6 | 7.0 | 0.00 | 0.00 | 0.00 | 37 | 1012.4 |
| 20260505222512 | 66 | 22 | 2.6 | 7.0 | 0.00 | 0.00 | 0.00 | 37 | 1012.5 |
| 20260505222014 | 65 | 27 | 0.9 | 4.3 | 0.00 | 0.00 | 0.00 | 38 | 1012.4 |
| 20260505221530 | 66 | 24 | 2.6 | 5.2 | 0.00 | 0.00 | 0.00 | 37 | 1012.5 |
| 20260505221010 | 66 | 36 | 1.7 | 5.2 | 0.00 | 0.00 | 0.00 | 37 | 1012.5 |
| 20260505220513 | 67 | 13 | 2.6 | 4.3 | 0.00 | 0.00 | 0.00 | 36 | 1012.5 |
| 20260505220038 | 68 | 80 | 2.6 | 5.2 | 0.00 | 0.00 | 0.00 | 35 | 1012.5 |
| 20260505215512 | 67 | 15 | 2.6 | 7.8 | 0.00 | 0.00 | 0.00 | 36 | 1012.5 |
| 20260505215010 | 68 | 360 | 4.3 | 8.7 | 0.00 | 0.00 | 0.00 | 34 | 1012.7 |
| 20260505214549 | 68 | 5 | 4.3 | 8.7 | 0.00 | 0.00 | 0.00 | 36 | 1012.6 |
| 20260505214015 | 68 | 11 | 2.6 | 7.8 | 0.00 | 0.00 | 0.00 | 36 | 1012.5 |
| 20260505213515 | 67 | 38 | 2.6 | 5.2 | 0.00 | 0.00 | 0.00 | 37 | 1012.8 |
| 20260505213033 | 67 | 334 | 2.6 | 5.2 | 0.00 | 0.00 | 0.00 | 37 | 1013.0 |
| 20260505212514 | 66 | 347 | 2.6 | 5.2 | 0.00 | 0.00 | 0.00 | 39 | 1012.7 |
| 20260505212013 | 66 | 319 | 2.6 | 5.2 | 0.00 | 0.00 | 0.00 | 39 | 1012.7 |
| 20260505211534 | 65 | 34 | 1.7 | 4.3 | 0.00 | 0.00 | 0.00 | 41 | 1012.7 |
| 20260505211014 | 65 | 5 | 2.6 | 5.2 | 0.00 | 0.00 | 0.00 | 39 | 1012.8 |
| 20260505210514 | 65 | 52 | 1.7 | 5.2 | 0.00 | 0.00 | 0.00 | 39 | 1012.7 |
| 20260505210036 | 66 | 47 | 1.7 | 7.0 | 0.00 | 0.00 | 0.00 | 37 | 1012.7 |
| 20260505205514 | 66 | 68 | 2.6 | 7.0 | 0.00 | 0.00 | 0.00 | 38 | 1012.5 |
| 20260505205014 | 66 | 355 | 1.7 | 7.8 | 0.00 | 0.00 | 0.00 | 38 | 1012.7 |
| 20260505204533 | 67 | 311 | 2.6 | 7.8 | 0.00 | 0.00 | 0.00 | 36 | 1012.7 |
| 20260505204014 | 68 | 355 | 2.6 | 7.0 | 0.00 | 0.00 | 0.00 | 36 | 1012.8 |
| 20260505203518 | 68 | 84 | 2.6 | 6.1 | 0.00 | 0.00 | 0.00 | 36 | 1012.7 |
| 20260505203029 | 68 | 57 | 3.5 | 10.4 | 0.00 | 0.00 | 0.00 | 37 | 1012.8 |
| 20260505202514 | 69 | 26 | 4.3 | 10.4 | 0.00 | 0.00 | 0.00 | 34 | 1012.8 |
| 20260505202015 | 68 | 22 | 2.6 | 5.2 | 0.00 | 0.00 | 0.00 | 37 | 1012.8 |
| 20260505201531 | 68 | 46 | 1.7 | 5.2 | 0.00 | 0.00 | 0.00 | 38 | 1012.8 |
| 20260505201014 | 67 | 29 | 2.6 | 4.3 | 0.00 | 0.00 | 0.00 | 38 | 1012.7 |
| 20260505200512 | 66 | 64 | 2.6 | 4.3 | 0.00 | 0.00 | 0.00 | 40 | 1012.7 |
| 20260505200055 | 64 | 28 | 1.7 | 4.3 | 0.00 | 0.00 | 0.00 | 40 | 1012.9 |
| 20260505195515 | 64 | 9 | 1.7 | 4.3 | 0.00 | 0.00 | 0.00 | 40 | 1013.0 |
| 20260505195014 | 64 | 355 | 2.6 | 5.2 | 0.00 | 0.00 | 0.00 | 41 | 1012.9 |
| 20260505194538 | 63 | 355 | 1.7 | 5.2 | 0.00 | 0.00 | 0.00 | 41 | 1012.8 |
| 20260505194013 | 63 | 310 | 1.7 | 4.3 | 0.00 | 0.00 | 0.00 | 39 | 1012.8 |
| 20260505193518 | 64 | 304 | 1.7 | 4.3 | 0.00 | 0.00 | 0.00 | 38 | 1012.9 |
| 20260505193038 | 64 | 275 | 1.7 | 4.3 | 0.00 | 0.00 | 0.00 | 38 | 1012.8 |
| 20260505192519 | 64 | 263 | 0.9 | 3.5 | 0.00 | 0.00 | 0.00 | 37 | 1012.9 |
| 20260505192013 | 65 | 333 | 1.7 | 4.3 | 0.00 | 0.00 | 0.00 | 36 | 1012.9 |
| 20260505191543 | 65 | 305 | 2.6 | 4.3 | 0.00 | 0.00 | 0.00 | 36 | 1012.7 |
| 20260505191011 | 64 | 355 | 0.9 | 5.2 | 0.00 | 0.00 | 0.00 | 36 | 1012.8 |
| 20260505190514 | 65 | 328 | 1.7 | 5.2 | 0.00 | 0.00 | 0.00 | 35 | 1012.8 |
| 20260505190040 | 64 | 69 | 0.9 | 5.2 | 0.00 | 0.00 | 0.00 | 35 | 1012.7 |
| 20260505185516 | 65 | 355 | 1.7 | 5.2 | 0.00 | 0.00 | 0.00 | 36 | 1012.7 |
| 20260505185017 | 65 | 22 | 2.6 | 5.2 | 0.00 | 0.00 | 0.00 | 35 | 1012.7 |
| 20260505184537 | 66 | 350 | 2.6 | 5.2 | 0.00 | 0.00 | 0.00 | 35 | 1012.7 |
| 20260505184014 | 65 | 302 | 0.9 | 5.2 | 0.00 | 0.00 | 0.00 | 37 | 1012.7 |
| 20260505183512 | 65 | 12 | 2.6 | 5.2 | 0.00 | 0.00 | 0.00 | 37 | 1012.7 |
| 20260505183052 | 65 | 316 | 2.6 | 4.3 | 0.00 | 0.00 | 0.00 | 38 | 1012.7 |
| 20260505182516 | 64 | 346 | 0.9 | 4.3 | 0.00 | 0.00 | 0.00 | 36 | 1012.8 |
| 20260505182015 | 64 | 19 | 1.7 | 4.3 | 0.00 | 0.00 | 0.00 | 38 | 1012.8 |
| 20260505181539 | 64 | 284 | 1.7 | 5.2 | 0.00 | 0.00 | 0.00 | 37 | 1012.7 |
| 20260505181012 | 64 | 329 | 1.7 | 5.2 | 0.00 | 0.00 | 0.00 | 38 | 1012.7 |
| 20260505180515 | 64 | 331 | 1.7 | 4.3 | 0.00 | 0.00 | 0.00 | 36 | 1012.8 |
| 20260505180046 | 64 | 333 | 2.6 | 4.3 | 0.00 | 0.00 | 0.00 | 37 | 1012.9 |
| 20260505175513 | 63 | 306 | 1.7 | 4.3 | 0.00 | 0.00 | 0.00 | 36 | 1012.7 |
| 20260505175013 | 62 | 344 | 1.7 | 5.2 | 0.00 | 0.00 | 0.00 | 36 | 1012.7 |
| 20260505174545 | 63 | 300 | 1.7 | 5.2 | 0.00 | 0.00 | 0.00 | 37 | 1012.6 |
| 20260505174015 | 62 | 339 | 1.7 | 4.3 | 0.00 | 0.00 | 0.00 | 37 | 1012.5 |
| 20260505173517 | 62 | 323 | 0.9 | 5.2 | 0.00 | 0.00 | 0.00 | 37 | 1012.5 |
| 20260505173037 | 62 | 298 | 2.6 | 5.2 | 0.00 | 0.00 | 0.00 | 36 | 1012.6 |
| 20260505172513 | 62 | 309 | 0.9 | 4.3 | 0.00 | 0.00 | 0.00 | 37 | 1012.5 |
| 20260505172015 | 62 | 321 | 1.7 | 3.5 | 0.00 | 0.00 | 0.00 | 37 | 1012.4 |
| 20260505171548 | 62 | 288 | 1.7 | 3.5 | 0.00 | 0.00 | 0.00 | 36 | 1012.3 |
| 20260505171012 | 62 | 324 | 1.7 | 4.3 | 0.00 | 0.00 | 0.00 | 37 | 1012.3 |
| 20260505170514 | 62 | 305 | 1.7 | 4.3 | 0.00 | 0.00 | 0.00 | 40 | 1012.4 |
| 20260505170052 | 61 | 247 | 1.7 | 4.3 | 0.00 | 0.00 | 0.00 | 37 | 1012.5 |
| 20260505165514 | 61 | 301 | 2.6 | 4.3 | 0.00 | 0.00 | 0.00 | 36 | 1012.5 |
| 20260505165014 | 61 | 254 | 1.7 | 4.3 | 0.00 | 0.00 | 0.00 | 36 | 1012.4 |
| 20260505164538 | 61 | 295 | 2.6 | 4.3 | 0.00 | 0.00 | 0.00 | 38 | 1012.2 |
| 20260505164016 | 61 | 271 | 1.7 | 3.5 | 0.00 | 0.00 | 0.00 | 37 | 1012.1 |
| 20260505163515 | 61 | 286 | 0.9 | 4.3 | 0.00 | 0.00 | 0.00 | 38 | 1012.1 |
| 20260505163038 | 61 | 307 | 1.7 | 4.3 | 0.00 | 0.00 | 0.00 | 36 | 1012.1 |
| 20260505162511 | 61 | 287 | 1.7 | 3.5 | 0.00 | 0.00 | 0.00 | 38 | 1012.0 |
| 20260505162013 | 61 | 280 | 0.9 | 3.5 | 0.00 | 0.00 | 0.00 | 38 | 1011.9 |
| 20260505161537 | 61 | 300 | 1.7 | 3.5 | 0.00 | 0.00 | 0.00 | 37 | 1012.2 |
| 20260505161015 | 60 | 286 | 1.7 | 3.5 | 0.00 | 0.00 | 0.00 | 40 | 1012.2 |
| 20260505160516 | 60 | 254 | 1.7 | 3.5 | 0.00 | 0.00 | 0.00 | 41 | 1012.0 |
| 20260505153040 | 59 | 290 | 0.9 | 3.5 | 0.00 | 0.00 | 0.00 | 40 | 1011.9 |
| 20260505152511 | 59 | 269 | 1.7 | 3.5 | 0.00 | 0.00 | 0.00 | 41 | 1011.7 |
| 20260505152016 | 59 | 296 | 1.7 | 3.5 | 0.00 | 0.00 | 0.00 | 40 | 1011.7 |
| 20260505151538 | 58 | 297 | 0.9 | 3.5 | 0.00 | 0.00 | 0.00 | 41 | 1011.6 |
| 20260505151015 | 58 | 321 | 0.9 | 3.5 | 0.00 | 0.00 | 0.00 | 44 | 1011.6 |
| 20260505150520 | 58 | 329 | 0.9 | 2.6 | 0.00 | 0.00 | 0.00 | 43 | 1011.6 |
| 20260505140516 | 56 | 232 | 0.9 | 2.6 | 0.00 | 0.00 | 0.00 | 44 | 1011.1 |
| 20260505125018 | 55 | 222 | 1.7 | 4.3 | 0.00 | 0.00 | 0.00 | 46 | 1010.5 |
| 20260505124543 | 55 | 227 | 1.7 | 4.3 | 0.00 | 0.00 | 0.00 | 46 | 1010.4 |
| 20260505124014 | 55 | 252 | 2.6 | 4.3 | 0.00 | 0.00 | 0.00 | 46 | 1010.4 |
| 20260505123524 | 55 | 217 | 2.6 | 4.3 | 0.00 | 0.00 | 0.00 | 46 | 1010.3 |
| 20260505123052 | 55 | 238 | 1.7 | 4.3 | 0.00 | 0.00 | 0.00 | 46 | 1010.4 |
| 20260505122519 | 55 | 223 | 2.6 | 5.2 | 0.00 | 0.00 | 0.00 | 46 | 1010.2 |
| 20260505122234 | 55 | 212 | 2.6 | 5.2 | 0.00 | 0.00 | 0.00 | 46 | 1010.2 |
| 20260505121539 | 55 | 197 | 2.6 | 6.1 | 0.00 | 0.00 | 0.00 | 46 | 1010.2 |
| 20260505121012 | 55 | 231 | 2.6 | 6.1 | 0.00 | 0.00 | 0.00 | 46 | 1010.2 |
| 20260505120512 | 55 | 225 | 2.6 | 5.2 | 0.00 | 0.00 | 0.00 | 46 | 1010.2 |
| 20260505120043 | 55 | 221 | 2.6 | 6.1 | 0.00 | 0.00 | 0.00 | 46 | 1010.1 |
| 20260505115508 | 55 | 250 | 3.5 | 6.1 | 0.00 | 0.00 | 0.00 | 46 | 1010.1 |
| 20260505115009 | 55 | 224 | 2.6 | 5.2 | 0.00 | 0.00 | 0.00 | 46 | 1010.1 |
| 20260505114544 | 55 | 246 | 2.6 | 7.0 | 0.00 | 0.00 | 0.00 | 46 | 1010.1 |
| 20260505114011 | 55 | 235 | 3.5 | 7.0 | 0.00 | 0.00 | 0.00 | 46 | 1010.1 |
| 20260505113509 | 55 | 229 | 2.6 | 7.8 | 0.00 | 0.00 | 0.00 | 46 | 1010.2 |
| 20260505113035 | 55 | 250 | 3.5 | 7.8 | 0.00 | 0.00 | 0.00 | 46 | 1010.1 |
| 20260505112510 | 54 | 225 | 3.5 | 5.2 | 0.00 | 0.00 | 0.00 | 46 | 1010.1 |
| 20260505112011 | 54 | 265 | 2.6 | 6.1 | 0.00 | 0.00 | 0.00 | 46 | 1010.1 |
| 20260505111532 | 54 | 246 | 2.6 | 7.0 | 0.00 | 0.00 | 0.00 | 46 | 1010.1 |
| 20260505111010 | 55 | 232 | 3.5 | 7.0 | 0.00 | 0.00 | 0.00 | 46 | 1010.1 |
| 20260505110510 | 54 | 230 | 3.5 | 6.1 | 0.00 | 0.00 | 0.00 | 46 | 1010.0 |
| 20260505102010 | 55 | 252 | 3.5 | 7.0 | 0.00 | 0.00 | 0.00 | 46 | 1010.0 |
| 20260505101548 | 54 | 252 | 3.5 | 6.1 | 0.00 | 0.00 | 0.00 | 46 | 1009.9 |
| 20260505101017 | 55 | 241 | 3.5 | 7.0 | 0.00 | 0.00 | 0.00 | 46 | 1009.9 |
| 20260505100513 | 54 | 238 | 3.5 | 7.0 | 0.00 | 0.00 | 0.00 | 47 | 1010.0 |
| 20260505100039 | 55 | 247 | 4.3 | 7.0 | 0.00 | 0.00 | 0.00 | 46 | 1009.9 |
| 20260505095514 | 55 | 232 | 4.3 | 7.8 | 0.00 | 0.00 | 0.00 | 46 | 1009.8 |
| 20260505095012 | 55 | 246 | 3.5 | 7.8 | 0.00 | 0.00 | 0.00 | 46 | 1009.9 |
| 20260505094540 | 55 | 242 | 3.5 | 6.1 | 0.00 | 0.00 | 0.00 | 46 | 1009.8 |
| 20260505094011 | 55 | 244 | 3.5 | 7.0 | 0.00 | 0.00 | 0.00 | 46 | 1009.8 |
| 20260505093512 | 55 | 248 | 4.3 | 6.1 | 0.00 | 0.00 | 0.00 | 47 | 1009.8 |
| 20260505093037 | 55 | 251 | 3.5 | 5.2 | 0.00 | 0.00 | 0.00 | 47 | 1009.8 |
| 20260505092513 | 55 | 242 | 3.5 | 7.0 | 0.00 | 0.00 | 0.00 | 47 | 1009.8 |
| 20260505092011 | 55 | 244 | 3.5 | 7.0 | 0.00 | 0.00 | 0.00 | 47 | 1009.9 |
| 20260505091547 | 55 | 248 | 3.5 | 6.1 | 0.00 | 0.00 | 0.00 | 47 | 1009.8 |
| 20260505091011 | 55 | 242 | 3.5 | 6.1 | 0.00 | 0.00 | 0.00 | 47 | 1009.9 |
| 20260505090512 | 55 | 248 | 4.3 | 7.0 | 0.00 | 0.00 | 0.00 | 47 | 1009.8 |
| 20260505090041 | 55 | 257 | 4.3 | 7.0 | 0.00 | 0.00 | 0.00 | 47 | 1009.8 |
| 20260505085512 | 55 | 265 | 4.3 | 7.0 | 0.00 | 0.00 | 0.00 | 47 | 1009.8 |
| 20260505085010 | 55 | 257 | 4.3 | 6.1 | 0.00 | 0.00 | 0.00 | 47 | 1009.8 |
| 20260505084541 | 55 | 234 | 4.3 | 6.1 | 0.00 | 0.00 | 0.00 | 47 | 1009.8 |
| 20260505084013 | 56 | 271 | 3.5 | 6.1 | 0.00 | 0.00 | 0.00 | 46 | 1009.8 |
| 20260505083509 | 55 | 221 | 3.5 | 6.1 | 0.00 | 0.00 | 0.00 | 46 | 1009.7 |
| 20260505083037 | 55 | 232 | 3.5 | 6.1 | 0.00 | 0.00 | 0.00 | 47 | 1009.7 |
| 20260505082516 | 55 | 250 | 2.6 | 6.1 | 0.00 | 0.00 | 0.00 | 47 | 1009.6 |
| 20260505082014 | 55 | 226 | 3.5 | 7.8 | 0.00 | 0.00 | 0.00 | 47 | 1009.7 |
| 20260505081537 | 56 | 240 | 2.6 | 7.8 | 0.00 | 0.00 | 0.00 | 46 | 1009.8 |
| 20260505081019 | 56 | 258 | 3.5 | 7.8 | 0.00 | 0.00 | 0.00 | 46 | 1009.8 |
| 20260505080510 | 55 | 236 | 4.3 | 7.8 | 0.00 | 0.00 | 0.00 | 47 | 1009.8 |
| 20260505080039 | 55 | 250 | 3.5 | 7.8 | 0.00 | 0.00 | 0.00 | 48 | 1009.8 |
| 20260505075514 | 55 | 252 | 3.5 | 7.8 | 0.00 | 0.00 | 0.00 | 47 | 1009.7 |
| 20260505075016 | 55 | 229 | 4.3 | 7.8 | 0.00 | 0.00 | 0.00 | 48 | 1009.8 |
| 20260505074539 | 55 | 259 | 3.5 | 7.8 | 0.00 | 0.00 | 0.00 | 48 | 1009.8 |
| 20260505074011 | 55 | 233 | 3.5 | 7.8 | 0.00 | 0.00 | 0.00 | 48 | 1009.7 |
| 20260505073515 | 55 | 225 | 4.3 | 8.7 | 0.00 | 0.00 | 0.00 | 49 | 1009.6 |
| 20260505073050 | 55 | 238 | 4.3 | 8.7 | 0.00 | 0.00 | 0.00 | 49 | 1009.7 |
| 20260505072511 | 55 | 248 | 4.3 | 7.8 | 0.00 | 0.00 | 0.00 | 48 | 1009.6 |
| 20260505072013 | 55 | 258 | 5.2 | 8.7 | 0.00 | 0.00 | 0.00 | 49 | 1009.6 |
| 20260505071549 | 55 | 250 | 5.2 | 8.7 | 0.00 | 0.00 | 0.00 | 49 | 1009.7 |
| 20260505071010 | 55 | 254 | 5.2 | 8.7 | 0.00 | 0.00 | 0.00 | 48 | 1009.6 |
| 20260505070516 | 55 | 234 | 4.3 | 9.6 | 0.00 | 0.00 | 0.00 | 48 | 1009.6 |
| 20260505070033 | 55 | 240 | 5.2 | 9.6 | 0.00 | 0.00 | 0.00 | 48 | 1009.7 |
| 20260505065512 | 55 | 259 | 6.1 | 8.7 | 0.00 | 0.00 | 0.00 | 49 | 1009.6 |
| 20260505065009 | 55 | 252 | 5.2 | 7.8 | 0.00 | 0.00 | 0.00 | 49 | 1009.5 |
| 20260505064541 | 55 | 250 | 4.3 | 8.7 | 0.00 | 0.00 | 0.00 | 49 | 1009.6 |
| 20260505064010 | 55 | 259 | 4.3 | 8.7 | 0.00 | 0.00 | 0.00 | 48 | 1009.6 |
| 20260505063510 | 55 | 281 | 5.2 | 9.6 | 0.00 | 0.00 | 0.00 | 47 | 1009.7 |
| 20260505063035 | 55 | 250 | 5.2 | 9.6 | 0.00 | 0.00 | 0.00 | 47 | 1009.6 |
| 20260505062511 | 55 | 256 | 5.2 | 9.6 | 0.00 | 0.00 | 0.00 | 47 | 1009.6 |
| 20260505062012 | 55 | 227 | 4.3 | 10.4 | 0.00 | 0.00 | 0.00 | 48 | 1009.6 |
| 20260505061537 | 55 | 210 | 6.1 | 10.4 | 0.00 | 0.00 | 0.00 | 47 | 1009.6 |
| 20260505061013 | 55 | 255 | 5.2 | 13.0 | 0.00 | 0.00 | 0.00 | 46 | 1009.6 |
| 20260505060513 | 55 | 266 | 6.1 | 13.0 | 0.00 | 0.00 | 0.00 | 47 | 1009.6 |
| 20260505060047 | 55 | 268 | 6.1 | 9.6 | 0.00 | 0.00 | 0.00 | 47 | 1009.7 |
| 20260505055518 | 55 | 247 | 5.2 | 9.6 | 0.00 | 0.00 | 0.00 | 47 | 1009.6 |
| 20260505055012 | 56 | 228 | 7.0 | 12.2 | 0.00 | 0.00 | 0.00 | 47 | 1009.7 |
| 20260505054538 | 56 | 259 | 7.0 | 12.2 | 0.00 | 0.00 | 0.00 | 45 | 1009.5 |
| 20260505054013 | 56 | 246 | 6.1 | 11.3 | 0.00 | 0.00 | 0.00 | 46 | 1009.4 |
| 20260505053510 | 56 | 205 | 7.0 | 12.2 | 0.00 | 0.00 | 0.00 | 45 | 1009.5 |
| 20260505053041 | 56 | 268 | 7.0 | 12.2 | 0.00 | 0.00 | 0.00 | 44 | 1009.4 |
| 20260505052511 | 56 | 271 | 7.0 | 12.2 | 0.00 | 0.00 | 0.00 | 44 | 1009.4 |
| 20260505052011 | 56 | 249 | 7.0 | 12.2 | 0.00 | 0.00 | 0.00 | 44 | 1009.3 |
| 20260505051555 | 56 | 202 | 4.3 | 12.2 | 0.00 | 0.00 | 0.00 | 44 | 1009.5 |
| 20260505051013 | 56 | 257 | 5.2 | 13.0 | 0.00 | 0.00 | 0.00 | 43 | 1009.3 |
| 20260505050512 | 56 | 257 | 6.1 | 13.0 | 0.00 | 0.00 | 0.00 | 43 | 1009.3 |
| 20260505041543 | 57 | 263 | 7.8 | 15.6 | 0.00 | 0.00 | 0.00 | 40 | 1009.1 |
| 20260505041015 | 57 | 246 | 6.1 | 12.2 | 0.00 | 0.00 | 0.00 | 42 | 1009.1 |
| 20260505040513 | 57 | 288 | 6.1 | 12.2 | 0.00 | 0.00 | 0.00 | 43 | 1009.0 |
| 20260505040042 | 58 | 256 | 6.1 | 11.3 | 0.00 | 0.00 | 0.00 | 40 | 1009.0 |
| 20260505035510 | 58 | 272 | 5.2 | 14.8 | 0.00 | 0.00 | 0.00 | 42 | 1008.9 |
| 20260505035011 | 58 | 252 | 7.8 | 14.8 | 0.00 | 0.00 | 0.00 | 40 | 1008.7 |
| 20260505034546 | 58 | 285 | 7.8 | 13.0 | 0.00 | 0.00 | 0.00 | 38 | 1008.7 |